Wetbulb
28.58 27.87 27.65 27.13 27.50 27.67 27.12 27.08 26.63 26.59 26.26 25.74 25.75 25.50 25.30 25.31 25.88 25.13 24.83 24.68 23.77 23.74 24.11 23.50 22.81 23.24 21.94 21.61 21.54 21.06 19.52 19.96 17.61 21.44 22.76 22.87 22.10 21.89 21.78 20.20 21.40 20.11 20.11
27.43 26.47 25.69 25.57 25.24 24.45 24.27 24.68 25.24 24.51 25.37 25.21 25.19 24.70 24.46 24.28 24.03 22.82 22.01 22.35 21.65 21.24 21.81 21.29 20.42 22.74 20.73 20.62 19.66 18.40 18.01 18.92 17.24 15.17 18.03 18.63 18.68 19.61 18.32 16.27 18.15 19.55 16.82
26.23 25.30 24.91 24.70 24.54 24.22 24.39 24.56 24.56 23.85 23.45 23.36 23.02 22.16 21.98 22.02 21.76 22.34 21.85 20.76 19.83 19.12 18.76 18.13 18.54 18.58 17.74 18.91 18.22 17.33 16.54 17.73 15.01 15.00 14.74 17.31 17.30 17.90 15.07 15.38 14.60 14.08 16.79
25.04 24.19 23.67 23.93 24.11 24.18 24.58 24.51 24.50 24.59 23.91 23.30 22.36 21.15 20.61 20.19 19.66 19.04 18.17 16.17 16.40 17.53 17.57 16.97 17.09 18.02 17.82 18.46 18.63 17.52 18.01 16.47 15.86 14.41 14.43 14.42 14.54 14.55 12.51 9.54 8.94 12.09 11.28
23.86 23.77 23.48 24.01 24.01 23.65 23.23 23.35 23.59 23.55 23.64 23.89 22.90 23.17 22.75 21.46 20.15 17.50 17.60 16.77 16.27 15.64 16.64 17.49 16.74 18.68 21.51 21.29 18.62 17.34 15.89 14.50 13.70 12.63 11.35 10.31 9.27 7.96 6.83 9.07 8.38 8.64 9.32
21.92 21.65 22.37 22.53 22.66 22.70 22.67 22.77 22.78 22.35 22.16 22.17 21.99 22.74 22.35 23.58 25.19 23.47 19.11 16.48 16.38 15.60 14.82 14.77 15.77 16.26 18.95 20.31 19.77 19.11 16.87 13.60 11.28 10.14 8.25 6.48 6.80 6.89 8.45 8.13 7.04 4.64 2.55
20.33 20.47 20.44 20.64 20.30 20.41 20.66 20.21 19.57 19.23 20.29 20.47 22.42 22.53 21.75 22.81 25.31 23.67 21.96 19.11 17.05 15.36 14.49 14.00 14.76 15.97 17.91 17.32 16.48 15.68 14.37 15.82 16.08 10.92 6.64 6.56 5.83 7.74 8.79 7.36 6.25 5.84 4.42
17.85 18.23 18.89 18.54 18.08 18.37 18.19 17.64 17.60 18.04 17.83 18.22 19.21 21.67 21.87 22.83 24.21 23.25 21.36 18.35 16.65 15.37 13.67 12.85 12.79 14.28 17.53 17.46 12.57 10.32 10.48 11.43 12.32 11.55 9.60 8.51 9.62 10.96 10.15 8.79 7.70 5.47 4.17
15.11 15.20 15.71 16.48 16.06 16.43 16.19 16.28 16.79 16.86 16.83 17.15 18.31 18.53 19.84 21.25 24.58 22.02 19.52 16.59 15.08 13.82 13.92 12.25 11.80 14.55 18.84 19.63 10.94 7.85 8.72 10.88 12.34 13.85 13.23 13.52 14.03 14.09 12.53 8.19 1.15 -0.91 -2.01
14.80 15.25 15.93 16.27 15.65 14.86 15.54 15.88 17.22 17.21 17.09 17.65 17.52 17.28 17.78 18.18 23.65 23.03 18.53 16.60 13.00 11.94 11.97 11.13 14.18 16.61 18.01 17.80 11.05 6.93 7.27 9.65 5.10 4.26 3.03 4.93 6.83 5.82 10.60 5.80 3.41 -2.43 -1.94
15.90 15.96 15.82 16.01 15.55 15.88 15.90 15.93 15.61 15.41 15.60 15.24 15.65 15.82 15.58 17.02 18.64 21.87 21.01 15.93 12.16 9.89 8.75 8.04 9.32 16.74 16.25 15.81 14.77 7.88 10.76 11.09 2.30 -1.34 -0.68 -0.12 0.74 1.78 2.86 4.14 4.28 1.81 -1.34
13.56 13.48 13.49 13.91 16.17 15.42 13.59 14.52 14.00 13.02 12.38 12.05 11.91 13.51 14.58 15.10 19.69 19.39 19.16 18.12 16.35 9.33 8.02 8.12 9.07 14.82 14.26 13.32 10.66 13.78 13.45 5.79 -1.86 -3.29 -3.93 -2.99 -1.26 0.00 1.93 3.14 3.45 3.03 3.22
9.13 7.84 9.89 11.85 14.36 14.85 12.43 12.33 12.64 11.77 11.24 11.30 10.91 8.80 10.61 13.34 14.48 16.97 17.44 16.57 15.81 10.36 10.46 9.72 12.00 11.70 10.86 7.16 9.35 10.81 3.30 -1.42 -3.08 -5.21 -4.72 -3.18 -0.95 0.52 0.90 0.83 2.38 2.85 2.87
6.03 7.80 9.22 9.93 11.24 11.81 13.67 13.84 12.76 10.73 9.39 11.04 9.16 6.11 6.21 10.02 12.64 13.29 12.72 8.71 13.15 10.23 5.42 -0.23 6.98 6.92 6.77 6.08 0.12 1.61 -0.04 -1.30 -3.46 -4.66 -4.39 -2.37 -0.95 -0.73 -0.83 0.99 -0.53 0.46 0.02
7.29 8.24 8.03 8.41 7.52 8.14 11.23 10.07 12.32 13.86 13.54 6.71 5.31 4.48 0.69 6.85 14.03 17.85 16.68 13.55 12.44 13.19 -4.00 -10.92 -8.52 -3.91 -3.64 -2.82 -2.41 -2.15 -1.78 -2.19 -3.45 -2.71 -3.47 -3.60 -2.88 -2.00 -1.59 0.45 -0.20 -0.53 -2.50
7.56 7.41 6.28 6.40 5.16 5.83 4.96 4.23 15.62 16.73 17.70 17.97 17.96 14.55 10.96 16.34 18.54 18.70 18.34 17.66 15.17 13.40 -14.46 -16.51 -6.56 -5.90 -5.99 -5.51 -5.46 -4.91 -3.56 -3.38 -2.96 -2.97 -3.73 -3.99 -3.98 -3.35 -2.83 -1.40 -0.91 -1.73 -2.62
3.76 4.33 3.52 4.12 2.17 0.13 -1.08 -1.75 -3.08 2.61 13.02 14.62 16.03 16.57 16.85 17.13 17.50 17.91 17.62 16.70 11.95 3.87 -16.83 -11.62 -8.76 -7.87 -7.58 -6.61 -6.04 -5.64 -5.62 -3.70 -3.11 -3.80 -3.63 -3.62 -3.25 -3.04 -3.04 -2.77 -2.22 -1.85 -1.28
-1.29 0.62 0.22 -1.19 -2.22 -4.45 -4.28 -5.19 -6.47 -6.99 -7.43 -3.53 5.67 12.86 13.66 14.55 15.74 16.23 15.64 7.36 -4.23 -5.81 -20.66 -16.27 -11.20 -9.35 -7.99 -7.58 -6.90 -6.64 -5.56 -4.97 -4.54 -3.93 -3.73 -3.36 -3.18 -3.62 -3.49 -2.80 -1.12 -0.88 -0.69
0.31 -2.21 -4.11 -6.63 -7.29 -5.08 -5.10 -5.63 -7.14 -7.58 -8.16 -9.09 -6.18 3.35 1.58 10.89 12.47 12.66 11.22 -13.36 -15.43 -10.69 -9.46 -11.97 -9.84 -9.02 -8.65 -8.35 -7.82 -7.28 -7.04 -6.75 -5.50 -5.38 -4.77 -3.55 -2.12 -1.25 -1.43 -0.47 0.49 1.11 1.50
-5.58 -1.59 -4.38 -7.76 -7.86 -6.32 -5.54 -5.83 -6.57 -7.67 -9.17 -10.32 -8.14 -8.30 -8.46 -7.21 -9.33 -12.71 -17.03 -19.59 -18.95 -13.89 -10.76 -11.84 -9.95 -9.18 -9.09 -9.18 -8.79 -8.24 -7.88 -7.10 -5.93 -4.69 -3.66 -2.44 -1.03 0.41 0.47 1.50 2.42 1.65 2.05
-2.69 -5.05 -3.40 -8.46 -8.11 -8.97 -9.09 -8.16 -8.83 -11.22 -11.52 -12.43 -9.17 -9.17 9.72 -1.50 -10.05 -13.27 -10.99 -13.26 -13.01 -12.75 -10.53 -9.12 -8.57 -8.37 -8.14 -8.49 -8.47 -8.45 -7.92 -7.03 -5.42 -4.05 -2.60 -1.29 0.16 0.53 2.21 3.23 3.90 4.83 6.58
-3.03 -4.65 -9.30 -5.91 -8.94 -7.65 -8.03 -9.48 -11.18 -12.34 -13.14 -11.31 -7.71 -11.30 7.92 -11.72 -9.49 -9.42 -9.94 -10.09 -9.52 -12.37 -10.74 -10.74 -10.24 -8.75 -8.17 -8.67 -8.44 -8.36 -8.06 -6.97 -4.64 -2.57 -0.97 -0.20 0.31 1.51 3.27 4.68 8.76 9.04 8.25
-1.62 -4.56 -6.85 -8.52 -5.89 -6.36 -8.34 -11.66 -12.48 -11.48 -9.17 -8.67 -9.32 -8.99 -13.98 -11.83 -10.95 -10.29 -9.16 -8.43 -9.82 -10.11 -8.30 -12.06 -11.85 -9.17 -7.71 -7.50 -6.91 -6.91 -7.47 -6.08 -2.58 -0.99 -1.91 -0.86 1.19 3.01 7.16 10.34 9.43 8.56 8.45
1.43 0.77 -0.47 -2.70 -2.50 -1.29 -1.44 -1.78 -6.84 -6.71 -6.05 -7.13 -9.75 -9.80 -9.91 -10.25 -9.30 -8.85 -9.18 -9.48 -9.86 -9.25 -8.99 -10.72 -9.68 -10.09 -9.42 -8.02 -6.48 -5.66 -4.15 -2.11 0.29 0.64 0.54 2.23 5.54 11.71 11.83 10.88 10.23 10.12 10.41
1.81 2.10 1.36 2.19 1.89 2.48 1.47 1.20 -2.29 -4.41 -5.36 -6.24 -5.97 -10.95 -12.14 -11.01 -9.37 -10.17 -9.67 -11.02 -10.17 -10.23 -9.98 -9.95 -8.87 -8.96 -9.43 -8.47 -7.51 -6.66 -4.65 -2.06 0.03 4.01 7.64 12.17 13.69 12.81 12.06 11.71 11.72 11.98 12.27
2.93 3.92 4.81 5.67 5.40 4.72 3.08 2.74 1.98 1.75 -1.66 -4.32 -5.73 -7.51 -9.57 -9.77 -9.75 -10.67 -10.03 -11.57 -10.65 -9.74 -11.25 -9.59 -9.10 -9.99 -9.38 -7.15 -5.23 -1.27 2.09 6.90 8.76 12.93 14.86 15.58 13.60 12.79 12.76 12.57 13.12 13.36 13.13
MSLP
1016.45 1015.04 1014.75 1015.15 1015.95 1016.73 1016.72 1017.99 1018.19 1018.53 1019.17 1019.51 1020.25 1020.86 1021.32 1022.00 1022.97 1022.73 1023.18 1023.82 1024.28 1025.45 1025.92 1026.38 1026.70 1027.13 1027.22 1026.99 1026.81 1026.88 1026.73 1026.38 1026.03 1025.39 1025.14 1024.80 1024.66 1024.27 1024.02 1024.06 1023.51 1023.06 1022.69
1017.75 1016.19 1015.88 1016.63 1017.91 1018.25 1018.93 1019.57 1020.01 1020.20 1021.36 1021.55 1022.24 1022.43 1022.87 1023.61 1024.27 1023.94 1024.39 1025.11 1026.33 1026.73 1027.11 1027.30 1027.67 1027.73 1027.61 1027.34 1027.31 1027.52 1027.46 1027.19 1027.13 1026.27 1025.80 1025.35 1024.87 1024.56 1024.42 1024.13 1023.69 1023.28 1023.28
1019.17 1016.43 1017.38 1018.48 1019.40 1020.13 1020.76 1020.87 1021.64 1021.81 1022.65 1022.92 1023.90 1024.21 1024.77 1025.27 1025.23 1026.15 1026.26 1026.71 1027.67 1028.10 1028.51 1028.21 1028.19 1028.06 1027.85 1027.98 1028.04 1027.76 1027.56 1027.58 1027.40 1026.87 1026.05 1025.64 1025.21 1024.84 1024.69 1024.47 1024.04 1023.61 1023.12
1020.27 1019.23 1019.70 1020.65 1021.27 1021.78 1022.45 1022.59 1022.83 1023.38 1024.20 1025.17 1025.75 1026.17 1026.20 1027.05 1026.94 1027.93 1028.05 1028.44 1028.74 1028.59 1028.89 1028.98 1028.59 1028.69 1028.41 1028.33 1028.06 1027.97 1027.87 1027.50 1027.18 1026.86 1026.51 1026.01 1025.91 1025.61 1025.39 1024.68 1023.67 1023.54 1022.73
1020.82 1021.40 1021.88 1022.76 1023.04 1023.62 1024.30 1024.15 1024.95 1025.19 1025.96 1026.90 1026.64 1026.90 1027.43 1027.78 1028.47 1028.36 1028.88 1029.45 1028.95 1028.83 1029.15 1029.45 1029.60 1029.48 1028.98 1028.47 1028.49 1028.35 1028.14 1027.82 1027.59 1027.50 1027.07 1026.75 1026.43 1026.09 1025.67 1025.09 1024.00 1022.89 1022.33
1023.23 1023.28 1023.95 1024.27 1024.42 1025.36 1025.79 1025.85 1026.15 1026.48 1026.71 1027.95 1027.53 1027.82 1028.00 1028.30 1028.22 1028.58 1029.47 1029.26 1029.29 1029.30 1029.67 1030.16 1030.07 1029.94 1029.49 1029.25 1029.23 1029.18 1028.91 1028.25 1027.98 1027.88 1027.93 1027.36 1026.69 1026.63 1025.89 1025.12 1024.29 1023.00 1021.42
1024.79 1025.44 1025.84 1026.16 1026.66 1027.21 1027.20 1027.07 1027.30 1027.86 1028.68 1028.90 1028.51 1028.44 1028.84 1028.67 1029.16 1028.68 1029.10 1029.48 1030.18 1030.34 1030.25 1030.76 1030.64 1030.26 1029.42 1029.24 1029.87 1029.78 1029.75 1029.01 1028.31 1028.41 1028.47 1028.03 1027.43 1026.66 1025.68 1025.23 1024.04 1023.52 1022.03
1027.05 1027.58 1027.92 1028.26 1028.40 1028.59 1028.33 1029.08 1029.84 1029.85 1029.94 1029.92 1029.62 1029.82 1029.55 1029.51 1029.72 1029.76 1030.16 1030.52 1030.64 1031.01 1031.16 1031.80 1031.55 1030.72 1029.71 1029.16 1029.97 1030.18 1029.93 1029.00 1028.89 1028.79 1028.44 1028.27 1027.59 1026.36 1025.94 1025.32 1024.22 1023.48 1021.91
1029.13 1029.72 1030.05 1029.89 1030.03 1030.06 1030.36 1030.60 1030.59 1030.56 1030.54 1030.83 1031.05 1030.92 1030.57 1030.41 1030.36 1031.17 1031.13 1031.30 1031.76 1032.06 1032.27 1032.27 1032.00 1031.00 1029.90 1028.56 1030.36 1029.97 1029.47 1028.79 1028.83 1028.83 1028.35 1027.76 1027.11 1026.38 1025.55 1024.77 1024.28 1022.97 1021.22
1030.94 1031.09 1031.09 1031.18 1031.12 1031.23 1031.28 1031.47 1031.86 1031.57 1031.68 1031.61 1032.14 1031.99 1031.87 1031.71 1031.84 1031.49 1031.64 1032.17 1032.76 1032.36 1032.75 1032.35 1031.84 1030.19 1029.78 1030.44 1030.43 1029.80 1029.02 1028.86 1029.15 1028.78 1028.66 1027.44 1026.88 1026.63 1025.51 1024.80 1023.79 1023.23 1021.73
1032.12 1032.21 1032.47 1032.55 1032.25 1032.46 1032.38 1032.55 1032.75 1032.79 1032.89 1033.15 1033.07 1032.70 1032.39 1033.39 1033.47 1031.97 1031.94 1032.98 1032.91 1032.80 1032.56 1032.23 1032.15 1031.21 1031.19 1030.35 1029.62 1029.70 1028.98 1028.86 1029.86 1029.23 1028.41 1028.13 1026.87 1025.31 1024.39 1024.11 1023.50 1022.55 1020.90
1033.37 1033.46 1033.52 1033.43 1033.38 1033.21 1033.51 1033.70 1033.35 1033.34 1033.74 1033.98 1033.50 1033.70 1034.11 1033.91 1032.79 1033.56 1034.09 1032.88 1032.69 1032.96 1033.17 1033.00 1032.57 1031.49 1031.17 1030.96 1030.81 1029.78 1029.48 1030.28 1029.67 1029.00 1028.32 1027.09 1025.86 1024.73 1023.76 1022.88 1022.03 1021.06 1019.95
1034.36 1034.29 1034.31 1034.13 1034.22 1034.47 1034.03 1033.91 1033.89 1033.94 1033.80 1034.53 1034.88 1034.51 1034.60 1034.98 1035.37 1034.37 1033.68 1033.65 1032.93 1033.03 1033.08 1033.13 1032.48 1031.98 1031.95 1031.66 1030.98 1030.04 1030.25 1030.08 1029.57 1029.12 1028.19 1026.63 1025.31 1024.09 1023.18 1022.02 1020.56 1018.72 1016.92
1035.03 1035.09 1035.03 1034.76 1034.63 1034.61 1034.64 1034.62 1034.77 1034.82 1034.80 1035.29 1035.80 1035.72 1035.96 1035.60 1034.52 1033.92 1033.55 1033.59 1033.20 1033.07 1033.63 1033.89 1032.97 1032.60 1032.17 1031.59 1031.19 1030.41 1030.39 1030.50 1029.82 1028.85 1027.58 1025.98 1025.03 1023.75 1022.39 1020.72 1019.01 1017.11 1015.38
1035.30 1035.34 1035.46 1035.63 1035.74 1035.72 1035.49 1035.11 1035.04 1034.97 1035.19 1035.50 1035.56 1035.71 1035.47 1034.69 1033.72 1033.15 1033.03 1033.00 1032.88 1032.69 1034.02 1034.52 1033.83 1032.93 1032.18 1032.10 1031.55 1030.89 1030.67 1029.79 1029.30 1028.32 1027.42 1025.89 1024.48 1022.88 1021.11 1019.70 1018.30 1016.42 1015.08
1035.78 1035.97 1036.11 1036.12 1036.10 1036.11 1036.13 1036.16 1035.45 1035.42 1035.31 1035.18 1035.03 1034.95 1035.28 1034.35 1033.65 1033.32 1033.23 1033.06 1033.23 1032.90 1034.76 1034.95 1034.16 1033.55 1033.30 1032.89 1032.14 1031.24 1030.54 1029.77 1028.87 1027.96 1026.75 1025.39 1023.73 1022.02 1020.10 1018.31 1017.33 1015.84 1013.79
1036.23 1036.34 1036.46 1036.62 1036.94 1037.29 1037.38 1037.55 1037.13 1036.46 1035.51 1035.29 1034.98 1034.66 1034.44 1034.27 1034.00 1033.67 1033.34 1033.11 1033.65 1033.83 1035.12 1035.10 1034.97 1034.47 1033.98 1033.32 1032.64 1031.93 1030.92 1029.63 1028.57 1027.37 1026.07 1024.48 1022.97 1021.22 1019.63 1017.45 1015.73 1014.15 1011.74
1036.29 1036.52 1036.81 1037.19 1037.49 1037.66 1037.73 1037.68 1037.48 1037.45 1036.96 1036.49 1035.93 1035.17 1035.00 1034.67 1034.14 1033.62 1033.36 1033.91 1034.15 1034.36 1035.25 1035.65 1035.29 1034.68 1033.95 1033.24 1032.47 1031.62 1030.31 1028.99 1027.77 1026.46 1024.98 1023.59 1021.96 1020.30 1018.15 1016.19 1014.23 1012.28 1010.00
1036.20 1036.51 1036.77 1037.05 1037.17 1037.19 1037.16 1037.20 1037.35 1037.65 1037.91 1037.59 1036.89 1035.66 1036.06 1035.06 1034.60 1034.33 1034.53 1035.83 1036.04 1035.82 1035.49 1035.32 1034.87 1034.28 1033.58 1032.91 1032.01 1030.91 1029.74 1028.33 1026.92 1025.42 1023.90 1022.31 1020.51 1018.82 1016.52 1014.63 1012.36 1010.02 1008.11
1036.16 1036.42 1036.76 1037.00 1037.25 1037.45 1037.52 1037.78 1038.01 1038.12 1038.11 1037.99 1037.61 1037.00 1036.62 1036.39 1036.07 1036.38 1036.31 1036.36 1036.16 1035.85 1035.40 1034.92 1034.29 1033.64 1032.95 1032.19 1031.10 1029.96 1028.70 1027.36 1025.74 1024.25 1022.63 1020.90 1018.94 1017.26 1015.06 1012.65 1010.46 1008.18 1005.50
1036.14 1036.49 1036.65 1036.92 1037.14 1037.35 1037.53 1037.88 1037.94 1038.26 1038.55 1038.14 1037.32 1036.46 1035.35 1035.73 1036.35 1036.48 1036.28 1035.97 1035.73 1035.33 1034.80 1034.20 1033.42 1032.70 1031.92 1031.08 1030.03 1029.07 1027.92 1026.28 1024.69 1023.08 1021.29 1019.27 1017.36 1015.38 1013.40 1011.16 1008.60 1006.09 1003.21
1035.68 1036.10 1036.47 1036.74 1036.94 1037.27 1037.41 1037.55 1037.77 1037.92 1038.02 1037.92 1037.07 1036.36 1035.39 1035.93 1036.19 1036.16 1035.74 1035.29 1034.83 1034.57 1033.94 1033.45 1032.76 1031.86 1031.00 1030.11 1029.17 1028.25 1026.94 1025.31 1023.45 1021.75 1019.86 1017.92 1015.97 1013.89 1011.55 1009.11 1006.08 1003.69 1001.13
1034.97 1035.44 1035.80 1036.04 1036.31 1036.69 1037.01 1037.16 1037.39 1037.51 1037.31 1037.08 1036.82 1036.50 1036.15 1035.94 1035.80 1035.57 1035.18 1034.61 1034.12 1033.50 1032.72 1032.52 1031.93 1030.78 1029.78 1028.96 1028.22 1027.35 1026.13 1024.20 1022.19 1020.74 1018.78 1016.54 1014.38 1012.06 1009.45 1006.68 1004.24 1001.53 999.27
1034.27 1034.61 1035.08 1035.46 1035.74 1035.98 1036.22 1036.40 1036.48 1036.52 1036.53 1036.49 1036.41 1036.20 1035.94 1035.58 1035.33 1034.97 1034.53 1034.00 1033.37 1032.59 1031.95 1031.50 1030.76 1029.95 1028.98 1027.98 1026.95 1025.81 1024.43 1022.58 1021.00 1019.44 1017.53 1015.11 1012.53 1009.47 1007.52 1005.14 1002.43 999.96 997.84
1033.22 1033.78 1034.21 1034.38 1034.61 1034.68 1034.92 1035.16 1035.45 1035.62 1035.74 1035.81 1035.83 1035.60 1035.29 1035.04 1034.79 1034.38 1033.83 1033.42 1032.77 1032.10 1031.29 1030.66 1029.85 1028.90 1028.01 1026.95 1025.78 1024.21 1022.50 1020.87 1019.63 1017.64 1015.30 1012.88 1010.54 1008.45 1006.10 1003.39 1000.61 998.17 996.33
1031.99 1032.58 1032.97 1033.29 1033.45 1033.70 1033.94 1034.13 1034.29 1034.52 1034.85 1034.95 1035.00 1035.00 1034.89 1034.59 1034.18 1033.78 1033.22 1032.81 1032.19 1031.47 1030.90 1030.03 1028.99 1028.03 1027.00 1025.84 1024.23 1022.56 1021.00 1019.30 1017.57 1015.27 1013.31 1011.31 1009.41 1007.01 1004.41 1001.68 998.98 997.01 994.77
Wind_Speed
11 18 21 21 21 19 20 18 19 20 19 20 19 19 19 18 14 16 17 17 18 15 13 13 13 10 7 7 7 6 6 5 3 3 5 8 10 9 8 9 11 11 9
12 20 24 24 21 21 20 20 19 21 18 18 18 19 18 17 16 18 18 16 16 14 13 13 12 7 8 7 7 5 6 4 4 8 7 7 9 10 8 12 11 11 10
12 22 24 23 21 21 20 21 20 21 19 20 18 18 17 16 17 15 15 15 14 12 11 11 10 10 9 6 4 5 2 4 2 4 7 7 7 7 10 10 11 10 10
15 22 23 22 21 20 18 19 20 19 19 17 17 17 17 15 15 13 13 13 11 10 11 11 11 10 10 8 8 8 6 6 7 6 7 7 8 10 9 11 11 9 11
20 20 22 20 20 20 19 20 19 19 17 14 16 15 13 13 9 12 11 9 10 11 9 10 11 13 19 16 8 9 10 8 7 7 8 8 8 10 12 10 11 12 11
19 21 19 18 19 18 17 17 17 17 17 14 15 14 14 11 23 22 12 10 10 11 10 7 8 11 13 17 18 16 12 10 10 8 8 10 12 11 9 11 12 13 11
19 18 17 17 17 15 15 16 17 16 13 13 14 15 14 13 21 22 19 10 9 9 11 10 10 10 10 10 14 16 13 15 13 11 11 10 12 12 13 14 14 13 15
17 16 16 14 15 14 16 15 13 11 12 11 13 13 14 15 22 20 16 10 9 10 11 11 10 11 13 13 10 10 9 9 9 9 9 10 11 12 11 12 15 15 14
16 14 12 11 12 12 13 11 10 11 12 11 11 12 13 14 24 19 13 9 10 10 10 10 9 8 19 23 10 12 11 10 10 18 18 20 21 22 18 10 10 11 16
12 11 10 10 11 12 11 10 8 9 10 10 12 11 11 11 20 21 15 8 7 6 7 10 16 17 21 18 8 9 10 10 10 11 11 15 16 14 20 9 10 12 13
9 10 9 9 10 9 9 9 8 9 8 8 9 10 12 10 11 20 21 9 7 6 7 7 7 19 18 19 18 9 13 13 12 7 8 9 10 10 10 10 11 11 15
7 8 8 7 7 7 8 7 8 7 6 6 7 7 6 8 15 16 14 15 13 6 7 6 7 19 19 18 13 20 20 14 5 7 8 9 10 11 11 12 16 16 16
6 6 7 7 7 6 8 8 7 7 7 6 5 4 4 5 3 8 14 13 13 6 6 11 15 16 17 11 19 21 13 7 8 9 10 11 10 12 16 16 17 19 21
6 5 4 6 7 8 6 6 5 5 5 5 2 2 2 4 3 2 1 2 8 4 8 5 12 12 14 13 9 11 8 7 7 9 10 12 12 12 14 13 15 16 17
5 5 5 5 5 4 4 3 4 1 4 3 2 2 1 4 7 13 13 8 7 10 4 2 3 6 8 8 9 8 7 8 9 9 11 12 14 14 15 14 14 16 16
6 4 3 4 3 3 3 4 8 7 8 10 10 5 0 10 15 16 16 17 17 19 4 3 6 7 8 9 10 11 11 12 11 12 12 13 14 15 17 16 15 15 18
6 4 3 3 3 2 2 2 1 4 3 9 12 11 12 14 15 15 15 16 16 13 3 5 7 7 8 9 9 9 12 12 13 12 13 14 15 15 18 17 17 16 19
5 6 4 4 3 3 2 2 2 2 2 3 6 11 13 15 17 18 20 14 8 8 2 3 7 7 8 9 9 10 12 12 12 13 14 14 15 15 17 18 18 20 20
6 4 4 3 3 3 2 3 3 2 2 2 4 7 8 16 17 15 18 2 3 6 6 6 6 7 8 9 10 11 12 13 14 14 14 14 15 15 18 18 19 28 27
3 6 4 3 2 2 2 2 2 2 2 3 3 3 5 4 4 3 2 2 3 5 6 7 7 8 8 9 10 11 12 13 14 13 14 15 16 16 18 20 20 22 23
4 3 5 3 3 3 2 2 2 1 3 3 4 3 12 2 3 4 5 4 5 5 7 7 8 8 9 10 10 10 12 13 14 14 15 16 17 17 19 20 21 22 24
5 4 3 4 2 3 3 3 3 3 3 4 4 4 13 2 4 5 5 6 6 5 6 7 8 9 9 10 11 11 13 15 15 15 16 17 18 19 20 21 21 24 24
6 6 5 3 4 3 3 3 3 4 4 5 4 4 3 4 5 5 6 6 6 6 7 5 7 9 9 10 10 11 13 15 16 15 18 19 19 20 20 22 24 24 24
7 8 7 5 4 4 4 4 4 5 5 5 4 5 5 5 5 6 6 6 6 7 6 6 8 11 12 12 11 12 13 15 14 17 24 21 21 22 23 24 25 30 26
8 8 7 7 7 7 5 5 4 5 5 4 5 4 4 5 5 6 6 5 7 7 9 8 8 12 15 18 20 23 23 26 22 27 20 24 24 31 26 24 28 27 30
10 10 8 7 7 6 6 5 6 5 5 4 5 5 4 5 5 6 6 6 7 8 9 8 11 17 19 17 20 23 26 28 26 32 23 19 22 23 24 29 36 26 28
Wind_Direction
67 78 78 72 70 70 71 71 74 74 71 72 71 71 73 72 72 76 74 77 73 69 63 64 62 51 49 47 41 38 27 23 360 305 329 335 341 343 349 357 342 339 347
67 81 78 79 77 74 74 73 73 75 68 72 71 73 74 73 68 72 73 73 72 68 66 63 56 48 46 39 37 31 27 18 344 319 310 333 335 337 352 342 338 335 324
69 78 76 76 76 74 76 76 71 73 67 66 67 69 70 71 73 65 74 75 76 71 66 60 50 41 36 24 26 13 24 357 293 299 308 322 332 342 342 325 327 319 316
71 70 76 74 75 74 72 76 73 73 73 75 70 71 70 68 71 75 72 68 70 70 65 55 44 34 31 24 20 8 6 353 351 341 327 340 340 344 329 327 327 321 317
68 73 73 77 76 76 73 72 76 73 74 74 78 74 80 79 75 69 71 72 67 65 55 56 47 27 30 30 15 9 10 359 354 338 342 334 334 337 338 327 317 319 317
70 69 69 71 71 70 73 74 73 71 70 66 68 72 71 71 75 76 75 73 64 58 52 40 41 27 19 24 17 17 14 4 1 359 344 336 336 328 321 325 320 325 318
63 62 65 66 72 68 70 68 61 63 68 65 67 68 63 61 65 66 62 62 66 58 55 39 28 13 8 25 16 11 8 3 7 5 335 334 322 318 322 321 320 310 302
60 58 61 63 66 63 63 66 68 69 66 62 58 61 65 59 54 55 61 61 56 55 47 35 18 6 1 13 17 358 354 351 1 346 336 316 304 313 315 313 306 300 292
58 55 53 59 69 69 68 68 67 69 64 60 58 55 58 55 50 50 48 48 48 41 37 27 4 354 4 8 14 353 345 340 356 336 326 319 318 318 315 314 295 309 301
58 60 54 57 64 67 65 63 70 72 70 60 56 48 52 43 43 41 43 38 38 34 26 18 7 5 5 357 16 342 332 347 344 339 320 318 317 299 309 300 299 292 294
58 61 64 64 65 67 70 59 66 75 77 65 63 52 43 31 26 38 35 24 33 22 17 6 356 353 353 357 5 332 335 349 327 310 310 294 295 301 302 287 277 280 287
66 67 58 52 66 60 73 69 55 54 70 71 55 53 44 18 32 28 29 29 37 29 15 349 332 356 355 354 354 340 342 340 308 313 308 310 307 300 296 293 286 272 262
70 57 54 54 59 72 69 59 58 42 48 54 57 35 17 5 289 30 27 26 23 45 16 359 353 357 353 345 343 345 353 332 328 319 310 301 297 296 294 286 282 282 280
86 81 75 73 63 54 57 56 64 60 44 44 54 36 297 272 283 292 40 15 16 25 21 356 356 356 354 349 337 345 335 318 305 301 301 298 294 294 294 295 297 302 300
87 73 71 72 69 63 79 97 54 7 119 160 173 168 294 347 355 5 4 359 5 350 31 2 330 353 347 340 331 327 323 322 316 307 302 301 299 299 295 300 294 298 291
100 86 80 84 68 64 51 22 38 73 63 50 31 39 284 356 358 355 354 352 359 360 38 355 346 347 338 330 327 322 321 315 309 305 301 295 295 297 298 298 294 291 292
114 108 89 89 82 104 98 106 72 328 18 36 23 17 5 1 349 347 344 351 353 17 31 352 334 325 314 308 304 301 298 296 297 291 290 290 292 291 297 295 296 291 291
122 133 142 145 147 157 156 150 147 77 353 318 352 2 4 352 349 348 348 1 349 357 25 311 307 300 296 294 294 291 290 293 293 292 290 290 291 290 293 292 292 292 291
148 150 147 149 161 130 104 72 68 45 358 305 333 350 355 346 342 344 346 62 307 304 304 296 287 288 288 286 284 283 283 286 289 290 289 288 290 292 290 289 290 294 292
142 152 151 154 137 101 80 74 23 358 337 316 309 290 315 354 349 321 300 285 280 274 282 280 284 282 282 281 281 282 287 289 289 290 290 290 290 291 291 294 295 294 294
157 160 170 143 144 158 154 190 217 230 261 271 267 264 298 329 288 282 293 275 264 271 279 283 288 285 284 282 281 285 286 287 289 291 292 293 295 296 295 293 292 291 290
166 168 168 181 166 171 203 197 212 223 241 262 277 286 306 331 286 278 274 273 268 255 264 269 281 282 282 281 285 287 288 290 293 294 295 296 296 295 296 292 295 302 299
170 176 184 196 183 183 199 216 227 236 248 252 262 278 270 270 267 272 280 280 276 277 278 268 272 286 283 281 278 277 282 285 289 295 292 293 295 294 291 302 304 301 301
183 188 191 195 186 204 211 225 227 234 246 256 261 264 266 267 273 276 277 277 281 281 277 273 275 277 287 288 287 283 278 279 288 289 290 289 292 300 307 304 301 301 303
191 193 194 198 202 211 213 226 228 237 248 245 262 256 259 269 277 276 279 277 284 286 290 287 283 285 285 289 288 287 285 288 290 289 291 296 305 310 305 302 303 306 309
192 197 203 203 207 208 212 222 230 236 246 246 251 260 264 273 275 278 285 286 291 292 291 288 286 285 289 291 288 289 296 300 303 305 307 313 312 309 307 306 308 312 312